{"data":{"norad_id":47264,"epoch":"2026-09-20T04:06:33.958368Z","epoch_age_seconds":46537,"freshness":"FRESH","line1":"1 47264U 20100G   26263.17122637  .00000260  00000+0  68627-3 0  9993","line2":"2 47264  87.8983 331.7990 0001838 109.2099 250.9228 13.12442925277186","mean_motion":13.12442925,"eccentricity":0.0001838,"inclination_deg":87.8983,"raan_deg":331.799,"arg_perigee_deg":109.2099,"mean_anomaly_deg":250.9228,"bstar":0.00068627,"rev_number":27718,"period_min":109.71905692585,"perigee_km":1212.3281962994,"apogee_km":1215.1189642487,"semimajor_km":7591.8605802741,"source":"CELESTRAK","updated_at":"2026-09-20T09:00:44.576999Z"}}